Time,TemperatureF,DewpointF,PressureIn,WindDirection,WindDirectionDegrees,WindSpeedMPH,WindSpeedGustMPH,Humidity,HourlyPrecipIn,Conditions,Clouds,dailyrainin,SoftwareType,DateUTC
2013-02-22 00:02:00,25.0,24.3,29.97,East,81,13.0,17.0,97,0.00,,,0.00,Wunderground v.1.15,2013-02-22 06:02:00,
2013-02-22 00:08:00,24.9,24.2,29.96,East,86,13.0,17.0,97,0.00,,,0.00,Wunderground v.1.15,2013-02-22 06:08:00,
2013-02-22 00:14:00,25.0,24.3,29.96,East,101,13.0,17.0,97,0.00,,,0.00,Wunderground v.1.15,2013-02-22 06:14:00,
2013-02-22 00:20:00,24.9,24.2,29.95,ENE,63,13.0,16.0,97,0.00,,,0.00,Wunderground v.1.15,2013-02-22 06:20:00,
2013-02-22 00:25:00,24.9,24.2,29.95,East,80,13.0,16.0,97,0.00,,,0.00,Wunderground v.1.15,2013-02-22 06:25:00,
2013-02-22 00:31:00,24.9,24.2,29.95,ENE,71,14.0,19.0,97,0.00,,,0.00,Wunderground v.1.15,2013-02-22 06:31:00,
2013-02-22 00:37:00,24.9,24.2,29.95,East,81,14.0,19.0,97,0.00,,,0.00,Wunderground v.1.15,2013-02-22 06:37:00,
2013-02-22 00:43:00,24.9,24.2,29.94,ENE,67,13.0,15.0,97,0.00,,,0.00,Wunderground v.1.15,2013-02-22 06:43:00,
2013-02-22 00:48:00,24.9,24.2,29.94,ENE,57,12.0,15.0,97,0.00,,,0.00,Wunderground v.1.15,2013-02-22 06:48:00,
2013-02-22 00:54:00,24.9,24.2,29.94,East,85,13.0,15.0,97,0.00,,,0.00,Wunderground v.1.15,2013-02-22 06:54:00,
2013-02-22 00:59:00,25.0,24.3,29.94,East,84,14.0,15.0,97,0.00,,,0.00,Wunderground v.1.15,2013-02-22 06:59:00,
2013-02-22 01:05:00,25.0,24.0,29.94,East,82,12.0,14.0,96,0.00,,,0.00,Wunderground v.1.15,2013-02-22 07:05:00,
2013-02-22 01:11:00,25.0,24.0,29.94,ENE,78,10.0,11.0,96,0.00,,,0.00,Wunderground v.1.15,2013-02-22 07:11:00,
2013-02-22 01:16:00,25.0,24.0,29.94,East,95,11.0,14.0,96,0.00,,,0.00,Wunderground v.1.15,2013-02-22 07:16:00,
2013-02-22 01:22:00,25.0,24.0,29.94,East,98,12.0,16.0,96,0.00,,,0.00,Wunderground v.1.15,2013-02-22 07:22:00,
2013-02-22 01:27:00,24.9,23.9,29.94,East,93,12.0,16.0,96,0.00,,,0.00,Wunderground v.1.15,2013-02-22 07:27:00,
2013-02-22 01:33:00,24.9,23.9,29.93,East,82,10.0,15.0,96,0.00,,,0.00,Wunderground v.1.15,2013-02-22 07:33:00,
2013-02-22 01:38:00,24.9,23.9,29.94,East,88,11.0,15.0,96,0.00,,,0.00,Wunderground v.1.15,2013-02-22 07:38:00,
2013-02-22 01:44:00,24.8,23.8,29.93,ENE,74,11.0,11.0,96,0.00,,,0.00,Wunderground v.1.15,2013-02-22 07:44:00,
2013-02-22 01:50:00,24.8,24.1,29.93,ENE,69,11.0,16.0,97,0.00,,,0.00,Wunderground v.1.15,2013-02-22 07:50:00,
2013-02-22 01:56:00,24.8,24.1,29.93,East,88,11.0,13.0,97,0.00,,,0.00,Wunderground v.1.15,2013-02-22 07:56:00,
2013-02-22 02:01:00,24.8,24.1,29.93,East,90,10.0,13.0,97,0.00,,,0.00,Wunderground v.1.15,2013-02-22 08:01:00,
2013-02-22 02:07:00,24.7,24.0,29.93,East,87,9.0,13.0,97,0.00,,,0.00,Wunderground v.1.15,2013-02-22 08:07:00,
2013-02-22 02:13:00,24.7,24.0,29.92,East,88,10.0,10.0,97,0.00,,,0.00,Wunderground v.1.15,2013-02-22 08:13:00,
2013-02-22 02:19:00,24.7,24.0,29.92,East,88,10.0,14.0,97,0.00,,,0.00,Wunderground v.1.15,2013-02-22 08:19:00,
2013-02-22 02:25:00,24.7,24.0,29.92,East,84,10.0,10.0,97,0.00,,,0.00,Wunderground v.1.15,2013-02-22 08:25:00,
2013-02-22 02:31:00,24.7,23.7,29.92,ENE,69,10.0,10.0,96,0.00,,,0.00,Wunderground v.1.15,2013-02-22 08:31:00,
2013-02-22 02:36:00,24.7,23.7,29.91,ENE,70,10.0,13.0,96,0.00,,,0.00,Wunderground v.1.15,2013-02-22 08:36:00,
2013-02-22 02:42:00,24.8,24.1,29.91,East,88,10.0,15.0,97,0.00,,,0.00,Wunderground v.1.15,2013-02-22 08:42:00,
2013-02-22 02:48:00,24.8,23.8,29.91,ENE,68,10.0,15.0,96,0.00,,,0.00,Wunderground v.1.15,2013-02-22 08:48:00,
2013-02-22 02:53:00,24.8,23.8,29.90,East,98,9.0,10.0,96,0.00,,,0.00,Wunderground v.1.15,2013-02-22 08:53:00,
2013-02-22 02:59:00,24.8,23.8,29.90,East,98,11.0,19.0,96,0.00,,,0.00,Wunderground v.1.15,2013-02-22 08:59:00,
2013-02-22 03:05:00,24.8,23.8,29.90,East,101,13.0,19.0,96,0.00,,,0.00,Wunderground v.1.15,2013-02-22 09:05:00,
2013-02-22 03:11:00,24.8,23.8,29.89,East,86,13.0,13.0,96,0.00,,,0.00,Wunderground v.1.15,2013-02-22 09:11:00,
2013-02-22 03:17:00,24.8,23.8,29.89,East,84,12.0,16.0,96,0.00,,,0.00,Wunderground v.1.15,2013-02-22 09:17:00,
2013-02-22 03:23:00,24.8,23.8,29.89,East,91,10.0,13.0,96,0.00,,,0.00,Wunderground v.1.15,2013-02-22 09:23:00,
2013-02-22 03:28:00,24.8,23.8,29.89,East,90,10.0,14.0,96,0.00,,,0.00,Wunderground v.1.15,2013-02-22 09:28:00,
2013-02-22 03:34:00,24.7,23.7,29.88,ENE,72,12.0,14.0,96,0.00,,,0.00,Wunderground v.1.15,2013-02-22 09:34:00,
2013-02-22 03:41:00,24.7,23.5,29.88,East,86,13.0,18.0,95,0.00,,,0.00,Wunderground v.1.15,2013-02-22 09:41:00,
2013-02-22 03:46:00,24.7,23.5,29.88,East,99,14.0,18.0,95,0.00,,,0.00,Wunderground v.1.15,2013-02-22 09:46:00,
2013-02-22 03:52:00,24.7,23.5,29.88,East,82,12.0,13.0,95,0.00,,,0.00,Wunderground v.1.15,2013-02-22 09:52:00,
2013-02-22 03:57:00,24.6,23.1,29.88,East,88,12.0,15.0,94,0.00,,,0.00,Wunderground v.1.15,2013-02-22 09:57:00,
2013-02-22 04:02:00,24.5,23.3,29.87,East,92,12.0,12.0,95,0.00,,,0.00,Wunderground v.1.15,2013-02-22 10:02:00,
2013-02-22 04:08:00,24.5,23.0,29.87,East,83,12.0,16.0,94,0.00,,,0.00,Wunderground v.1.15,2013-02-22 10:08:00,
2013-02-22 04:14:00,24.4,22.9,29.86,East,98,12.0,14.0,94,0.00,,,0.00,Wunderground v.1.15,2013-02-22 10:14:00,
2013-02-22 04:20:00,24.3,22.8,29.86,East,85,11.0,11.0,94,0.00,,,0.00,Wunderground v.1.15,2013-02-22 10:20:00,
2013-02-22 04:26:00,24.2,22.7,29.86,East,85,11.0,12.0,94,0.00,,,0.00,Wunderground v.1.15,2013-02-22 10:26:00,
2013-02-22 04:31:00,24.2,22.7,29.86,ENE,71,11.0,16.0,94,0.00,,,0.00,Wunderground v.1.15,2013-02-22 10:31:00,
2013-02-22 04:37:00,24.1,22.6,29.86,East,84,12.0,16.0,94,0.00,,,0.00,Wunderground v.1.15,2013-02-22 10:37:00,
2013-02-22 04:43:00,24.0,22.5,29.85,ESE,103,12.0,17.0,94,0.00,,,0.00,Wunderground v.1.15,2013-02-22 10:43:00,
2013-02-22 04:49:00,24.0,22.5,29.85,East,80,12.0,17.0,94,0.00,,,0.00,Wunderground v.1.15,2013-02-22 10:49:00,
2013-02-22 04:55:00,24.0,22.5,29.85,ENE,72,12.0,13.0,94,0.00,,,0.00,Wunderground v.1.15,2013-02-22 10:55:00,
2013-02-22 05:01:00,24.0,22.5,29.85,East,86,11.0,11.0,94,0.00,,,0.00,Wunderground v.1.15,2013-02-22 11:01:00,
2013-02-22 05:06:00,23.9,22.4,29.85,ENE,74,12.0,13.0,94,0.00,,,0.00,Wunderground v.1.15,2013-02-22 11:06:00,
2013-02-22 05:12:00,23.9,22.4,29.85,ENE,70,12.0,12.0,94,0.00,,,0.00,Wunderground v.1.15,2013-02-22 11:12:00,
2013-02-22 05:18:00,23.9,22.4,29.85,East,89,13.0,14.0,94,0.00,,,0.00,Wunderground v.1.15,2013-02-22 11:18:00,
2013-02-22 05:24:00,23.9,22.4,29.85,East,94,13.0,18.0,94,0.00,,,0.00,Wunderground v.1.15,2013-02-22 11:24:00,
2013-02-22 05:30:00,23.8,22.3,29.85,East,86,12.0,18.0,94,0.00,,,0.00,Wunderground v.1.15,2013-02-22 11:30:00,
2013-02-22 05:36:00,23.9,22.4,29.84,East,91,13.0,16.0,94,0.00,,,0.00,Wunderground v.1.15,2013-02-22 11:36:00,
2013-02-22 05:42:00,23.9,22.4,29.84,East,81,13.0,13.0,94,0.00,,,0.00,Wunderground v.1.15,2013-02-22 11:42:00,
2013-02-22 05:48:00,23.9,22.4,29.84,East,90,13.0,15.0,94,0.00,,,0.00,Wunderground v.1.15,2013-02-22 11:48:00,
2013-02-22 05:53:00,23.9,22.4,29.84,East,90,11.0,13.0,94,0.00,,,0.00,Wunderground v.1.15,2013-02-22 11:53:00,
2013-02-22 05:59:00,24.0,22.5,29.84,East,90,10.0,14.0,94,0.00,,,0.00,Wunderground v.1.15,2013-02-22 11:59:00,
2013-02-22 06:04:00,24.0,22.5,29.84,East,90,10.0,11.0,94,0.00,,,0.00,Wunderground v.1.15,2013-02-22 12:04:00,
2013-02-22 06:10:00,24.0,22.5,29.83,East,95,11.0,11.0,94,0.00,,,0.00,Wunderground v.1.15,2013-02-22 12:10:00,
2013-02-22 06:16:00,24.0,22.5,29.83,East,90,10.0,13.0,94,0.00,,,0.00,Wunderground v.1.15,2013-02-22 12:16:00,
2013-02-22 06:21:00,23.9,22.4,29.83,East,82,11.0,11.0,94,0.00,,,0.00,Wunderground v.1.15,2013-02-22 12:21:00,
2013-02-22 06:26:00,23.9,22.4,29.83,East,99,11.0,16.0,94,0.00,,,0.00,Wunderground v.1.15,2013-02-22 12:26:00,
2013-02-22 06:32:00,23.9,22.4,29.82,East,89,10.0,11.0,94,0.00,,,0.00,Wunderground v.1.15,2013-02-22 12:32:00,
2013-02-22 06:37:00,23.9,22.4,29.82,East,92,10.0,11.0,94,0.00,,,0.00,Wunderground v.1.15,2013-02-22 12:37:00,
2013-02-22 06:43:00,23.9,22.4,29.82,ENE,65,11.0,12.0,94,0.00,,,0.00,Wunderground v.1.15,2013-02-22 12:43:00,
2013-02-22 06:48:00,23.9,22.4,29.82,East,92,11.0,12.0,94,0.00,,,0.00,Wunderground v.1.15,2013-02-22 12:48:00,
2013-02-22 06:54:00,24.0,22.5,29.82,East,99,10.0,14.0,94,0.00,,,0.00,Wunderground v.1.15,2013-02-22 12:54:00,
2013-02-22 07:01:00,24.0,22.5,29.82,East,82,11.0,11.0,94,0.00,,,0.00,Wunderground v.1.15,2013-02-22 13:01:00,
2013-02-22 07:06:00,24.0,22.5,29.83,ESE,102,11.0,13.0,94,0.00,,,0.00,Wunderground v.1.15,2013-02-22 13:06:00,
2013-02-22 07:11:00,24.0,22.5,29.83,ESE,103,10.0,10.0,94,0.00,,,0.00,Wunderground v.1.15,2013-02-22 13:11:00,
2013-02-22 07:17:00,24.1,22.6,29.83,East,86,10.0,11.0,94,0.00,,,0.00,Wunderground v.1.15,2013-02-22 13:17:00,
2013-02-22 07:22:00,24.1,22.6,29.83,East,92,10.0,14.0,94,0.00,,,0.00,Wunderground v.1.15,2013-02-22 13:22:00,
2013-02-22 07:28:00,24.2,22.7,29.83,East,94,10.0,14.0,94,0.00,,,0.00,Wunderground v.1.15,2013-02-22 13:28:00,
2013-02-22 07:34:00,24.2,22.7,29.83,East,98,9.0,11.0,94,0.00,,,0.00,Wunderground v.1.15,2013-02-22 13:34:00,
2013-02-22 07:40:00,24.3,22.8,29.83,East,84,8.0,10.0,94,0.00,,,0.00,Wunderground v.1.15,2013-02-22 13:40:00,
2013-02-22 07:45:00,24.3,22.8,29.83,East,101,8.0,11.0,94,0.00,,,0.00,Wunderground v.1.15,2013-02-22 13:45:00,
2013-02-22 07:51:00,24.3,22.8,29.83,East,96,9.0,9.0,94,0.00,,,0.00,Wunderground v.1.15,2013-02-22 13:51:00,
2013-02-22 07:56:00,24.3,22.8,29.83,East,97,8.0,10.0,94,0.00,,,0.00,Wunderground v.1.15,2013-02-22 13:56:00,
2013-02-22 08:01:00,24.4,22.9,29.83,ESE,102,8.0,8.0,94,0.00,,,0.00,Wunderground v.1.15,2013-02-22 14:01:00,
2013-02-22 08:07:00,24.4,23.2,29.83,ESE,105,8.0,10.0,95,0.00,,,0.00,Wunderground v.1.15,2013-02-22 14:07:00,
2013-02-22 08:13:00,24.5,23.3,29.83,East,93,8.0,9.0,95,0.00,,,0.00,Wunderground v.1.15,2013-02-22 14:13:00,
2013-02-22 08:19:00,24.6,23.4,29.83,East,91,8.0,9.0,95,0.00,,,0.00,Wunderground v.1.15,2013-02-22 14:19:00,
2013-02-22 08:25:00,24.7,23.5,29.83,East,99,8.0,8.0,95,0.00,,,0.00,Wunderground v.1.15,2013-02-22 14:25:00,
2013-02-22 08:31:00,24.7,23.5,29.83,East,98,8.0,8.0,95,0.00,,,0.00,Wunderground v.1.15,2013-02-22 14:31:00,
2013-02-22 08:36:00,24.8,23.8,29.83,East,91,7.0,10.0,96,0.00,,,0.00,Wunderground v.1.15,2013-02-22 14:36:00,
2013-02-22 08:42:00,24.8,23.8,29.83,ESE,105,7.0,10.0,96,0.00,,,0.00,Wunderground v.1.15,2013-02-22 14:42:00,
2013-02-22 08:48:00,24.9,23.9,29.83,SE,136,7.0,10.0,96,0.00,,,0.00,Wunderground v.1.15,2013-02-22 14:48:00,
2013-02-22 08:53:00,25.0,24.0,29.83,East,97,7.0,7.0,96,0.00,,,0.00,Wunderground v.1.15,2013-02-22 14:53:00,
2013-02-22 08:59:00,25.1,24.1,29.83,ESE,102,7.0,9.0,96,0.00,,,0.00,Wunderground v.1.15,2013-02-22 14:59:00,
2013-02-22 09:05:00,25.2,24.2,29.83,East,90,6.0,8.0,96,0.00,,,0.00,Wunderground v.1.15,2013-02-22 15:05:00,
2013-02-22 09:11:00,25.3,24.3,29.83,East,99,6.0,8.0,96,0.00,,,0.00,Wunderground v.1.15,2013-02-22 15:11:00,
2013-02-22 09:16:00,25.4,24.4,29.84,East,99,6.0,8.0,96,0.00,,,0.00,Wunderground v.1.15,2013-02-22 15:16:00,
2013-02-22 09:22:00,25.6,24.6,29.84,ESE,113,5.0,5.0,96,0.00,,,0.00,Wunderground v.1.15,2013-02-22 15:22:00,
2013-02-22 09:27:00,25.7,24.7,29.84,ESE,107,4.0,5.0,96,0.00,,,0.00,Wunderground v.1.15,2013-02-22 15:27:00,
2013-02-22 09:32:00,25.9,25.2,29.84,ESE,113,4.0,4.0,97,0.00,,,0.00,Wunderground v.1.15,2013-02-22 15:32:00,
2013-02-22 09:38:00,26.0,25.3,29.84,SE,124,4.0,8.0,97,0.00,,,0.00,Wunderground v.1.15,2013-02-22 15:38:00,
2013-02-22 09:44:00,26.2,25.2,29.84,ESE,109,4.0,4.0,96,0.00,,,0.00,Wunderground v.1.15,2013-02-22 15:44:00,
2013-02-22 09:50:00,26.3,25.3,29.84,ESE,109,4.0,5.0,96,0.00,,,0.00,Wunderground v.1.15,2013-02-22 15:50:00,
2013-02-22 09:55:00,26.5,25.8,29.84,ESE,113,4.0,6.0,97,0.00,,,0.00,Wunderground v.1.15,2013-02-22 15:55:00,
2013-02-22 10:00:00,26.7,26.0,29.84,East,101,4.0,4.0,97,0.00,,,0.00,Wunderground v.1.15,2013-02-22 16:00:00,
2013-02-22 10:06:00,27.0,26.3,29.84,ESE,111,4.0,7.0,97,0.00,,,0.00,Wunderground v.1.15,2013-02-22 16:06:00,
2013-02-22 10:12:00,27.3,26.6,29.84,ESE,113,4.0,4.0,97,0.00,,,0.00,Wunderground v.1.15,2013-02-22 16:12:00,
2013-02-22 10:17:00,27.6,26.9,29.84,SE,128,3.0,5.0,97,0.00,,,0.00,Wunderground v.1.15,2013-02-22 16:17:00,
2013-02-22 10:23:00,27.8,27.1,29.84,SE,127,3.0,3.0,97,0.00,,,0.00,Wunderground v.1.15,2013-02-22 16:23:00,
2013-02-22 10:29:00,28.0,27.3,29.84,SE,138,3.0,4.0,97,0.00,,,0.00,Wunderground v.1.15,2013-02-22 16:29:00,
2013-02-22 10:35:00,28.4,27.7,29.84,SSE,154,3.0,4.0,97,0.00,,,0.00,Wunderground v.1.15,2013-02-22 16:35:00,
2013-02-22 10:41:00,28.5,27.8,29.84,SE,144,4.0,4.0,97,0.00,,,0.00,Wunderground v.1.15,2013-02-22 16:41:00,
2013-02-22 10:46:00,28.8,28.1,29.84,South,169,4.0,6.0,97,0.00,,,0.00,Wunderground v.1.15,2013-02-22 16:46:00,
2013-02-22 10:52:00,29.0,28.3,29.85,SSE,148,4.0,6.0,97,0.00,,,0.00,Wunderground v.1.15,2013-02-22 16:52:00,
2013-02-22 10:57:00,29.1,28.1,29.84,South,173,4.0,6.0,96,0.00,,,0.00,Wunderground v.1.15,2013-02-22 16:57:00,
2013-02-22 11:03:00,29.4,28.7,29.85,South,179,4.0,8.0,97,0.00,,,0.00,Wunderground v.1.15,2013-02-22 17:03:00,
2013-02-22 11:08:00,29.5,28.5,29.84,South,178,6.0,8.0,96,0.00,,,0.00,Wunderground v.1.15,2013-02-22 17:08:00,
2013-02-22 11:14:00,29.8,29.1,29.84,South,188,6.0,8.0,97,0.00,,,0.00,Wunderground v.1.15,2013-02-22 17:14:00,
2013-02-22 11:20:00,30.2,29.2,29.84,South,188,5.0,8.0,96,0.00,,,0.00,Wunderground v.1.15,2013-02-22 17:20:00,
2013-02-22 11:26:00,30.5,29.5,29.84,South,177,5.0,8.0,96,0.00,,,0.00,Wunderground v.1.15,2013-02-22 17:26:00,
2013-02-22 11:31:00,30.5,29.5,29.84,SSW,194,6.0,6.0,96,0.00,,,0.00,Wunderground v.1.15,2013-02-22 17:31:00,
2013-02-22 11:37:00,30.8,29.8,29.84,South,187,6.0,8.0,96,0.00,,,0.00,Wunderground v.1.15,2013-02-22 17:37:00,
2013-02-22 11:43:00,30.9,29.9,29.83,South,180,6.0,7.0,96,0.00,,,0.00,Wunderground v.1.15,2013-02-22 17:43:00,
2013-02-22 11:49:00,31.0,30.0,29.83,South,186,7.0,9.0,96,0.00,,,0.00,Wunderground v.1.15,2013-02-22 17:49:00,
2013-02-22 11:55:00,31.3,30.3,29.83,South,186,7.0,7.0,96,0.00,,,0.00,Wunderground v.1.15,2013-02-22 17:55:00,
2013-02-22 12:01:00,31.5,30.5,29.83,SW,214,6.0,9.0,96,0.00,,,0.00,Wunderground v.1.15,2013-02-22 18:01:00,
2013-02-22 12:07:00,31.9,30.9,29.83,SSW,197,6.0,9.0,96,0.00,,,0.00,Wunderground v.1.15,2013-02-22 18:07:00,
2013-02-22 12:13:00,32.1,30.8,29.83,South,181,6.0,9.0,95,0.00,,,0.00,Wunderground v.1.15,2013-02-22 18:13:00,
2013-02-22 12:18:00,32.3,31.0,29.83,SSW,209,7.0,10.0,95,0.00,,,0.00,Wunderground v.1.15,2013-02-22 18:18:00,
2013-02-22 12:24:00,32.3,31.0,29.83,South,175,8.0,15.0,95,0.00,,,0.01,Wunderground v.1.15,2013-02-22 18:24:00,
2013-02-22 12:30:00,32.5,31.2,29.83,SW,230,9.0,15.0,95,0.11,,,0.02,Wunderground v.1.15,2013-02-22 18:30:00,
2013-02-22 12:36:00,32.4,31.1,29.83,SW,222,9.0,9.0,95,0.10,,,0.03,Wunderground v.1.15,2013-02-22 18:36:00,
2013-02-22 12:41:00,32.3,30.8,29.83,SSW,208,9.0,9.0,94,0.07,,,0.04,Wunderground v.1.15,2013-02-22 18:41:00,
2013-02-22 12:46:00,32.2,30.7,29.82,WSW,252,10.0,14.0,94,0.07,,,0.04,Wunderground v.1.15,2013-02-22 18:46:00,
2013-02-22 12:52:00,32.2,30.7,29.82,SW,221,11.0,11.0,94,0.05,,,0.04,Wunderground v.1.15,2013-02-22 18:52:00,
2013-02-22 12:58:00,32.3,30.8,29.82,WSW,248,10.0,17.0,94,0.04,,,0.05,Wunderground v.1.15,2013-02-22 18:58:00,
2013-02-22 13:04:00,32.4,30.6,29.82,SW,234,11.0,14.0,93,0.04,,,0.05,Wunderground v.1.15,2013-02-22 19:04:00,
2013-02-22 13:09:00,32.4,30.6,29.82,SW,233,12.0,14.0,93,0.04,,,0.05,Wunderground v.1.15,2013-02-22 19:09:00,
2013-02-22 13:14:00,32.3,30.5,29.83,SW,234,12.0,12.0,93,0.00,,,0.05,Wunderground v.1.15,2013-02-22 19:14:00,
2013-02-22 13:20:00,32.1,30.3,29.83,SW,232,10.0,15.0,93,0.00,,,0.06,Wunderground v.1.15,2013-02-22 19:20:00,
2013-02-22 13:26:00,31.9,30.1,29.83,SSW,209,13.0,22.0,93,0.00,,,0.06,Wunderground v.1.15,2013-02-22 19:26:00,
2013-02-22 13:31:00,31.7,29.9,29.83,WSW,238,14.0,14.0,93,0.00,,,0.06,Wunderground v.1.15,2013-02-22 19:31:00,
2013-02-22 13:37:00,31.6,29.8,29.83,SW,232,14.0,16.0,93,0.00,,,0.06,Wunderground v.1.15,2013-02-22 19:37:00,
2013-02-22 13:43:00,31.4,29.6,29.84,SW,217,12.0,14.0,93,0.00,,,0.06,Wunderground v.1.15,2013-02-22 19:43:00,
2013-02-22 13:48:00,31.3,29.5,29.84,WSW,242,12.0,15.0,93,0.00,,,0.06,Wunderground v.1.15,2013-02-22 19:48:00,
2013-02-22 13:54:00,31.1,29.0,29.84,SW,219,12.0,18.0,92,0.00,,,0.06,Wunderground v.1.15,2013-02-22 19:54:00,
2013-02-22 13:59:00,31.0,29.2,29.84,SW,220,11.0,18.0,93,0.00,,,0.06,Wunderground v.1.15,2013-02-22 19:59:00,
2013-02-22 14:05:00,31.0,29.2,29.85,WSW,243,12.0,13.0,93,0.00,,,0.06,Wunderground v.1.15,2013-02-22 20:05:00,
2013-02-22 14:11:00,31.0,29.2,29.85,SW,234,11.0,15.0,93,0.00,,,0.06,Wunderground v.1.15,2013-02-22 20:11:00,
2013-02-22 14:17:00,31.1,29.3,29.85,SW,225,10.0,17.0,93,0.00,,,0.06,Wunderground v.1.15,2013-02-22 20:17:00,
2013-02-22 14:22:00,31.1,29.0,29.85,WNW,298,11.0,17.0,92,0.00,,,0.07,Wunderground v.1.15,2013-02-22 20:22:00,
2013-02-22 14:28:00,31.1,29.0,29.85,WSW,239,11.0,17.0,92,0.00,,,0.07,Wunderground v.1.15,2013-02-22 20:28:00,
2013-02-22 14:34:00,30.9,28.6,29.85,SW,221,10.0,13.0,91,0.00,,,0.07,Wunderground v.1.15,2013-02-22 20:34:00,
2013-02-22 14:40:00,30.9,28.9,29.85,SW,231,9.0,9.0,92,0.00,,,0.07,Wunderground v.1.15,2013-02-22 20:40:00,
2013-02-22 14:46:00,30.9,28.9,29.85,SW,217,8.0,11.0,92,0.00,,,0.07,Wunderground v.1.15,2013-02-22 20:46:00,
2013-02-22 14:52:00,30.7,28.7,29.86,SW,233,8.0,18.0,92,0.00,,,0.07,Wunderground v.1.15,2013-02-22 20:52:00,
2013-02-22 14:58:00,30.6,28.6,29.86,WSW,254,10.0,18.0,92,0.00,,,0.07,Wunderground v.1.15,2013-02-22 20:58:00,
2013-02-22 15:04:00,30.4,28.4,29.86,SW,220,10.0,15.0,92,0.00,,,0.07,Wunderground v.1.15,2013-02-22 21:04:00,
2013-02-22 15:10:00,30.2,28.2,29.86,WSW,246,10.0,16.0,92,0.00,,,0.07,Wunderground v.1.15,2013-02-22 21:10:00,
2013-02-22 15:16:00,30.2,28.2,29.86,WNW,294,10.0,16.0,92,0.00,,,0.07,Wunderground v.1.15,2013-02-22 21:16:00,
2013-02-22 15:22:00,30.1,28.1,29.86,WNW,297,9.0,10.0,92,0.00,,,0.07,Wunderground v.1.15,2013-02-22 21:22:00,
2013-02-22 15:27:00,30.1,28.1,29.87,WSW,257,9.0,14.0,92,0.00,,,0.07,Wunderground v.1.15,2013-02-22 21:27:00,
2013-02-22 15:33:00,29.9,27.9,29.86,WSW,254,9.0,11.0,92,0.00,,,0.07,Wunderground v.1.15,2013-02-22 21:33:00,
2013-02-22 15:38:00,29.8,27.8,29.87,SW,229,9.0,11.0,92,0.00,,,0.07,Wunderground v.1.15,2013-02-22 21:38:00,
2013-02-22 15:44:00,29.8,27.5,29.87,WSW,247,9.0,15.0,91,0.00,,,0.07,Wunderground v.1.15,2013-02-22 21:44:00,
2013-02-22 15:50:00,29.9,27.6,29.87,West,267,10.0,16.0,91,0.00,,,0.07,Wunderground v.1.15,2013-02-22 21:50:00,
2013-02-22 15:56:00,29.8,27.5,29.87,WSW,254,10.0,15.0,91,0.00,,,0.07,Wunderground v.1.15,2013-02-22 21:56:00,
2013-02-22 16:02:00,29.9,27.3,29.87,WSW,248,10.0,12.0,90,0.00,,,0.07,Wunderground v.1.15,2013-02-22 22:02:00,
2013-02-22 16:08:00,29.8,27.2,29.87,SW,229,10.0,16.0,90,0.00,,,0.07,Wunderground v.1.15,2013-02-22 22:08:00,
2013-02-22 16:14:00,29.7,26.9,29.87,West,259,11.0,15.0,89,0.00,,,0.07,Wunderground v.1.15,2013-02-22 22:14:00,
2013-02-22 16:20:00,29.6,26.8,29.88,SW,217,10.0,12.0,89,0.00,,,0.07,Wunderground v.1.15,2013-02-22 22:20:00,
2013-02-22 16:26:00,29.5,26.7,29.88,SW,234,11.0,12.0,89,0.00,,,0.07,Wunderground v.1.15,2013-02-22 22:26:00,
2013-02-22 16:32:00,29.4,26.3,29.88,SW,225,10.0,13.0,88,0.00,,,0.07,Wunderground v.1.15,2013-02-22 22:32:00,
2013-02-22 16:37:00,29.4,26.3,29.88,WSW,247,11.0,15.0,88,0.00,,,0.07,Wunderground v.1.15,2013-02-22 22:37:00,
2013-02-22 16:43:00,29.3,26.2,29.88,WSW,248,11.0,11.0,88,0.00,,,0.07,Wunderground v.1.15,2013-02-22 22:43:00,
2013-02-22 16:48:00,29.3,25.9,29.88,SW,233,9.0,11.0,87,0.00,,,0.07,Wunderground v.1.15,2013-02-22 22:48:00,
2013-02-22 16:54:00,29.3,25.9,29.88,West,262,8.0,16.0,87,0.00,,,0.07,Wunderground v.1.15,2013-02-22 22:54:00,
2013-02-22 16:59:00,29.3,25.9,29.88,WSW,250,9.0,16.0,87,0.00,,,0.07,Wunderground v.1.15,2013-02-22 22:59:00,
2013-02-22 17:06:00,29.2,25.8,29.89,WSW,258,9.0,10.0,87,0.00,,,0.07,Wunderground v.1.15,2013-02-22 23:06:00,
2013-02-22 17:11:00,29.2,25.8,29.89,WSW,250,8.0,16.0,87,0.00,,,0.07,Wunderground v.1.15,2013-02-22 23:11:00,
2013-02-22 17:17:00,29.1,25.7,29.89,WSW,252,9.0,16.0,87,0.00,,,0.07,Wunderground v.1.15,2013-02-22 23:17:00,
2013-02-22 17:23:00,29.1,25.7,29.89,WNW,298,10.0,11.0,87,0.00,,,0.07,Wunderground v.1.15,2013-02-22 23:23:00,
2013-02-22 17:29:00,29.0,25.9,29.89,WSW,239,9.0,13.0,88,0.00,,,0.07,Wunderground v.1.15,2013-02-22 23:29:00,
2013-02-22 17:35:00,28.9,25.8,29.89,WNW,285,9.0,19.0,88,0.00,,,0.07,Wunderground v.1.15,2013-02-22 23:35:00,
2013-02-22 17:41:00,28.8,25.7,29.90,WSW,244,10.0,14.0,88,0.00,,,0.07,Wunderground v.1.15,2013-02-22 23:41:00,
2013-02-22 17:46:00,28.8,25.7,29.90,WSW,254,9.0,15.0,88,0.00,,,0.07,Wunderground v.1.15,2013-02-22 23:46:00,
2013-02-22 17:52:00,28.7,25.6,29.90,WSW,249,8.0,13.0,88,0.00,,,0.07,Wunderground v.1.15,2013-02-22 23:52:00,
2013-02-22 17:58:00,28.7,25.6,29.90,WSW,257,9.0,13.0,88,0.00,,,0.07,Wunderground v.1.15,2013-02-22 23:58:00,
2013-02-22 18:03:00,28.6,25.5,29.90,WSW,255,10.0,13.0,88,0.00,,,0.07,Wunderground v.1.15,2013-02-23 00:03:00,
2013-02-22 18:09:00,28.5,25.4,29.90,West,271,10.0,14.0,88,0.00,,,0.07,Wunderground v.1.15,2013-02-23 00:09:00,
2013-02-22 18:15:00,28.5,25.7,29.91,WSW,246,10.0,16.0,89,0.00,,,0.07,Wunderground v.1.15,2013-02-23 00:15:00,
2013-02-22 18:20:00,28.4,25.6,29.91,WSW,248,10.0,10.0,89,0.00,,,0.07,Wunderground v.1.15,2013-02-23 00:20:00,
2013-02-22 18:26:00,28.4,25.6,29.91,WSW,237,10.0,17.0,89,0.00,,,0.07,Wunderground v.1.15,2013-02-23 00:26:00,
2013-02-22 18:32:00,28.3,25.5,29.91,WSW,258,10.0,13.0,89,0.00,,,0.07,Wunderground v.1.15,2013-02-23 00:32:00,
2013-02-22 18:38:00,28.3,25.5,29.91,SW,233,11.0,14.0,89,0.00,,,0.07,Wunderground v.1.15,2013-02-23 00:38:00,
2013-02-22 18:43:00,28.1,25.5,29.91,SW,219,10.0,11.0,90,0.00,,,0.07,Wunderground v.1.15,2013-02-23 00:43:00,
2013-02-22 18:49:00,28.0,25.4,29.91,West,275,9.0,15.0,90,0.00,,,0.07,Wunderground v.1.15,2013-02-23 00:49:00,
2013-02-22 18:55:00,28.0,25.4,29.91,WSW,240,10.0,13.0,90,0.00,,,0.07,Wunderground v.1.15,2013-02-23 00:55:00,
2013-02-22 19:00:00,27.9,25.3,29.92,SW,236,10.0,10.0,90,0.00,,,0.07,Wunderground v.1.15,2013-02-23 01:00:00,
2013-02-22 19:06:00,27.9,25.6,29.92,WSW,248,10.0,12.0,91,0.00,,,0.07,Wunderground v.1.15,2013-02-23 01:06:00,
2013-02-22 19:12:00,27.8,25.5,29.92,SW,234,10.0,11.0,91,0.00,,,0.07,Wunderground v.1.15,2013-02-23 01:12:00,
2013-02-22 19:18:00,27.8,25.5,29.92,WSW,238,11.0,11.0,91,0.00,,,0.07,Wunderground v.1.15,2013-02-23 01:18:00,
2013-02-22 19:23:00,27.8,25.5,29.92,WSW,252,11.0,16.0,91,0.00,,,0.07,Wunderground v.1.15,2013-02-23 01:23:00,
2013-02-22 19:29:00,27.8,25.5,29.93,WSW,244,11.0,16.0,91,0.00,,,0.07,Wunderground v.1.15,2013-02-23 01:29:00,
2013-02-22 19:35:00,27.7,25.4,29.93,West,259,9.0,15.0,91,0.00,,,0.07,Wunderground v.1.15,2013-02-23 01:35:00,
2013-02-22 19:41:00,27.7,25.4,29.93,SW,221,9.0,9.0,91,0.00,,,0.07,Wunderground v.1.15,2013-02-23 01:41:00,
2013-02-22 19:47:00,27.6,25.3,29.93,WSW,245,8.0,11.0,91,0.00,,,0.07,Wunderground v.1.15,2013-02-23 01:47:00,
2013-02-22 19:53:00,27.6,25.3,29.93,West,267,8.0,14.0,91,0.00,,,0.07,Wunderground v.1.15,2013-02-23 01:53:00,
2013-02-22 19:58:00,27.5,25.5,29.93,WSW,245,8.0,14.0,92,0.00,,,0.07,Wunderground v.1.15,2013-02-23 01:58:00,
2013-02-22 20:04:00,27.5,25.5,29.93,WNW,291,8.0,12.0,92,0.00,,,0.07,Wunderground v.1.15,2013-02-23 02:04:00,
2013-02-22 20:10:00,27.4,25.4,29.93,WSW,256,7.0,7.0,92,0.00,,,0.07,Wunderground v.1.15,2013-02-23 02:10:00,
2013-02-22 20:15:00,27.4,25.4,29.93,WSW,256,8.0,10.0,92,0.00,,,0.07,Wunderground v.1.15,2013-02-23 02:15:00,
2013-02-22 20:21:00,27.4,25.4,29.93,WSW,245,8.0,12.0,92,0.00,,,0.07,Wunderground v.1.15,2013-02-23 02:21:00,
2013-02-22 20:27:00,27.4,25.4,29.93,West,275,8.0,12.0,92,0.00,,,0.07,Wunderground v.1.15,2013-02-23 02:27:00,
2013-02-22 20:33:00,27.3,25.3,29.93,West,270,8.0,9.0,92,0.00,,,0.07,Wunderground v.1.15,2013-02-23 02:33:00,
2013-02-22 20:38:00,27.3,25.3,29.93,SE,128,8.0,14.0,92,0.00,,,0.07,Wunderground v.1.15,2013-02-23 02:38:00,
2013-02-22 20:44:00,27.3,25.3,29.93,WSW,258,8.0,9.0,92,0.00,,,0.07,Wunderground v.1.15,2013-02-23 02:44:00,
2013-02-22 20:50:00,27.2,25.2,29.93,WSW,248,8.0,11.0,92,0.00,,,0.07,Wunderground v.1.15,2013-02-23 02:50:00,
2013-02-22 20:56:00,27.2,25.4,29.93,WSW,245,7.0,11.0,93,0.00,,,0.07,Wunderground v.1.15,2013-02-23 02:56:00,
2013-02-22 21:01:00,27.2,25.4,29.93,SW,219,8.0,8.0,93,0.00,,,0.07,Wunderground v.1.15,2013-02-23 03:01:00,
2013-02-22 21:07:00,27.1,25.3,29.93,WSW,253,8.0,12.0,93,0.00,,,0.07,Wunderground v.1.15,2013-02-23 03:07:00,
2013-02-22 21:13:00,27.1,25.3,29.94,WSW,253,8.0,9.0,93,0.00,,,0.07,Wunderground v.1.15,2013-02-23 03:13:00,
2013-02-22 21:18:00,27.1,25.3,29.94,WSW,246,7.0,9.0,93,0.00,,,0.07,Wunderground v.1.15,2013-02-23 03:18:00,
2013-02-22 21:24:00,27.0,25.2,29.94,West,260,7.0,9.0,93,0.00,,,0.07,Wunderground v.1.15,2013-02-23 03:24:00,
2013-02-22 21:30:00,27.0,25.2,29.94,SW,223,7.0,11.0,93,0.00,,,0.07,Wunderground v.1.15,2013-02-23 03:30:00,
2013-02-22 21:35:00,27.0,25.2,29.94,SW,222,8.0,11.0,93,0.00,,,0.07,Wunderground v.1.15,2013-02-23 03:35:00,
2013-02-22 21:41:00,27.0,25.2,29.94,WSW,244,7.0,8.0,93,0.00,,,0.07,Wunderground v.1.15,2013-02-23 03:41:00,
2013-02-22 21:46:00,26.9,25.1,29.94,WSW,254,7.0,12.0,93,0.00,,,0.07,Wunderground v.1.15,2013-02-23 03:46:00,
2013-02-22 21:52:00,26.9,25.1,29.94,WSW,251,7.0,7.0,93,0.00,,,0.07,Wunderground v.1.15,2013-02-23 03:52:00,
2013-02-22 21:57:00,26.9,25.1,29.94,West,273,8.0,10.0,93,0.00,,,0.07,Wunderground v.1.15,2013-02-23 03:57:00,
2013-02-22 22:03:00,26.9,25.1,29.94,West,260,8.0,9.0,93,0.00,,,0.07,Wunderground v.1.15,2013-02-23 04:03:00,
2013-02-22 22:08:00,26.9,25.1,29.94,WSW,240,8.0,10.0,93,0.00,,,0.07,Wunderground v.1.15,2013-02-23 04:08:00,
2013-02-22 22:14:00,26.8,25.0,29.94,West,263,7.0,9.0,93,0.00,,,0.07,Wunderground v.1.15,2013-02-23 04:14:00,
2013-02-22 22:21:00,26.8,24.8,29.94,WSW,242,8.0,10.0,92,0.00,,,0.07,Wunderground v.1.15,2013-02-23 04:21:00,
2013-02-22 22:26:00,26.7,24.7,29.94,West,259,8.0,10.0,92,0.00,,,0.07,Wunderground v.1.15,2013-02-23 04:26:00,
2013-02-22 22:31:00,26.7,24.7,29.94,West,268,7.0,7.0,92,0.00,,,0.07,Wunderground v.1.15,2013-02-23 04:31:00,
2013-02-22 22:37:00,26.6,24.3,29.95,WSW,248,7.0,14.0,91,0.00,,,0.07,Wunderground v.1.15,2013-02-23 04:37:00,
2013-02-22 22:43:00,26.6,24.1,29.94,West,262,7.0,12.0,90,0.00,,,0.07,Wunderground v.1.15,2013-02-23 04:43:00,
2013-02-22 22:48:00,26.5,24.0,29.95,WNW,298,8.0,12.0,90,0.00,,,0.07,Wunderground v.1.15,2013-02-23 04:48:00,
2013-02-22 22:54:00,26.4,23.9,29.94,WSW,252,7.0,10.0,90,0.00,,,0.07,Wunderground v.1.15,2013-02-23 04:54:00,
2013-02-22 23:00:00,26.2,23.7,29.94,West,259,7.0,10.0,90,0.00,,,0.07,Wunderground v.1.15,2013-02-23 05:00:00,
2013-02-22 23:01:00,26.2,23.7,29.94,West,259,7.0,10.0,90,0.00,,,0.07,Wunderground v.1.15,2013-02-23 05:01:00,
2013-02-22 23:03:00,26.1,23.6,29.94,WSW,249,7.0,10.0,90,0.00,,,0.07,Wunderground v.1.15,2013-02-23 05:03:00,
2013-02-22 23:05:00,26.1,23.6,29.94,WSW,248,7.0,10.0,90,0.00,,,0.07,Wunderground v.1.15,2013-02-23 05:05:00,
2013-02-22 23:11:00,26.0,23.5,29.94,WSW,251,7.0,7.0,90,0.00,,,0.07,Wunderground v.1.15,2013-02-23 05:11:00,
2013-02-22 23:16:00,25.9,23.4,29.94,WNW,302,7.0,12.0,90,0.00,,,0.07,Wunderground v.1.15,2013-02-23 05:16:00,
2013-02-22 23:21:00,25.8,23.3,29.94,West,279,7.0,8.0,90,0.00,,,0.07,Wunderground v.1.15,2013-02-23 05:21:00,
2013-02-22 23:26:00,25.7,23.2,29.94,WSW,250,7.0,12.0,90,0.00,,,0.07,Wunderground v.1.15,2013-02-23 05:26:00,
2013-02-22 23:32:00,25.5,23.0,29.94,SW,234,9.0,10.0,90,0.00,,,0.07,Wunderground v.1.15,2013-02-23 05:32:00,
2013-02-22 23:38:00,25.4,22.9,29.94,WSW,250,9.0,13.0,90,0.00,,,0.07,Wunderground v.1.15,2013-02-23 05:38:00,
2013-02-22 23:44:00,25.3,22.8,29.94,West,263,8.0,11.0,90,0.00,,,0.07,Wunderground v.1.15,2013-02-23 05:44:00,
2013-02-22 23:50:00,25.2,22.7,29.95,WSW,244,8.0,8.0,90,0.00,,,0.07,Wunderground v.1.15,2013-02-23 05:50:00,
2013-02-22 23:55:00,25.1,22.6,29.95,WSW,255,7.0,12.0,90,0.00,,,0.07,Wunderground v.1.15,2013-02-23 05:55:00,